owner,sensor,date,latitude,longitude,vertical_datum,mass_concentration_of_oxygen_in_sea_water,qcFlag 
DISL,ioos:station:DISL:DISL:1,2010-04-01T00:00:00Z,30.2513,-88.0778,5.276,9.89,1111122 
DISL,ioos:station:DISL:DISL:1,2010-04-01T00:30:00Z,30.2513,-88.0778,5.257,9.52,1111122 
DISL,ioos:station:DISL:DISL:1,2010-04-01T01:00:00Z,30.2513,-88.0778,5.242,9.57,1111122 
DISL,ioos:station:DISL:DISL:1,2010-04-01T01:30:00Z,30.2513,-88.0778,5.206,9.51,1111122 
DISL,ioos:station:DISL:DISL:1,2010-04-01T02:00:00Z,30.2513,-88.0778,5.167,9.44,1111122 
DISL,ioos:station:DISL:DISL:1,2010-04-01T02:30:00Z,30.2513,-88.0778,5.139,9.33,1111122 
DISL,ioos:station:DISL:DISL:1,2010-04-01T03:00:00Z,30.2513,-88.0778,5.102,9.25,1111122 
DISL,ioos:station:DISL:DISL:1,2010-04-01T03:30:00Z,30.2513,-88.0778,5.095,9.3,1111122 
DISL,ioos:station:DISL:DISL:1,2010-04-01T04:00:00Z,30.2513,-88.0778,5.092,9.15,1111122 
DISL,ioos:station:DISL:DISL:1,2010-04-01T04:30:00Z,30.2513,-88.0778,5.09,9.35,1111122 
DISL,ioos:station:DISL:DISL:1,2010-04-01T05:00:00Z,30.2513,-88.0778,5.121,7.96,1111122 
DISL,ioos:station:DISL:DISL:1,2010-04-01T05:30:00Z,30.2513,-88.0778,5.146,8.75,1111122 
DISL,ioos:station:DISL:DISL:1,2010-04-01T06:00:00Z,30.2513,-88.0778,5.214,8.31,1111122 
DISL,ioos:station:DISL:DISL:1,2010-04-01T06:30:00Z,30.2513,-88.0778,5.253,8.63,1111122 
DISL,ioos:station:DISL:DISL:1,2010-04-01T07:00:00Z,30.2513,-88.0778,5.301,8.97,1111122 
DISL,ioos:station:DISL:DISL:1,2010-04-01T07:30:00Z,30.2513,-88.0778,5.415,8.37,1111122 
DISL,ioos:station:DISL:DISL:1,2010-04-01T08:00:00Z,30.2513,-88.0778,5.471,7.33,1111122 
DISL,ioos:station:DISL:DISL:1,2010-04-01T08:30:00Z,30.2513,-88.0778,5.502,8.71,1111122 
DISL,ioos:station:DISL:DISL:1,2010-04-01T09:00:00Z,30.2513,-88.0778,5.586,8.65,1111122 
DISL,ioos:station:DISL:DISL:1,2010-04-01T09:30:00Z,30.2513,-88.0778,5.641,8.47,1111122 
DISL,ioos:station:DISL:DISL:1,2010-04-01T10:00:00Z,30.2513,-88.0778,5.731,8.89,1111122 
DISL,ioos:station:DISL:DISL:1,2010-04-01T10:30:00Z,30.2513,-88.0778,5.817,8.94,1111122 
DISL,ioos:station:DISL:DISL:1,2010-04-01T11:00:00Z,30.2513,-88.0778,5.892,7.87,1111122 
DISL,ioos:station:DISL:DISL:1,2010-04-01T11:30:00Z,30.2513,-88.0778,5.97,6.04,1111122 
DISL,ioos:station:DISL:DISL:1,2010-04-01T12:00:00Z,30.2513,-88.0778,6.082,5.54,1111122 
DISL,ioos:station:DISL:DISL:1,2010-04-01T12:30:00Z,30.2513,-88.0778,6.174,5.35,1111122 
DISL,ioos:station:DISL:DISL:1,2010-04-01T13:00:00Z,30.2513,-88.0778,6.247,5.02,1111122 
DISL,ioos:station:DISL:DISL:1,2010-04-01T13:30:00Z,30.2513,-88.0778,6.341,5.97,1111122 
DISL,ioos:station:DISL:DISL:1,2010-04-01T14:00:00Z,30.2513,-88.0778,6.427,6.61,1111122 
DISL,ioos:station:DISL:DISL:1,2010-04-01T14:30:00Z,30.2513,-88.0778,6.509,6.85,1111122 
DISL,ioos:station:DISL:DISL:1,2010-04-01T15:00:00Z,30.2513,-88.0778,6.566,6.37,1111122 
DISL,ioos:station:DISL:DISL:1,2010-04-01T15:30:00Z,30.2513,-88.0778,6.57,7.33,1111122 
DISL,ioos:station:DISL:DISL:1,2010-04-01T16:00:00Z,30.2513,-88.0778,6.593,6.94,1111122 
DISL,ioos:station:DISL:DISL:1,2010-04-01T16:30:00Z,30.2513,-88.0778,6.611,7.75,1111122 
DISL,ioos:station:DISL:DISL:1,2010-04-01T17:00:00Z,30.2513,-88.0778,6.606,8.64,1111122 
DISL,ioos:station:DISL:DISL:1,2010-04-01T17:30:00Z,30.2513,-88.0778,6.541,8.93,1111122 
DISL,ioos:station:DISL:DISL:1,2010-04-01T18:00:00Z,30.2513,-88.0778,6.519,9.01,1111122 
DISL,ioos:station:DISL:DISL:1,2010-04-01T18:30:00Z,30.2513,-88.0778,6.474,9.02,1111122 
DISL,ioos:station:DISL:DISL:1,2010-04-01T19:00:00Z,30.2513,-88.0778,6.419,8.57,1111122 
DISL,ioos:station:DISL:DISL:1,2010-04-01T19:30:00Z,30.2513,-88.0778,6.37,9.0,1111122 
DISL,ioos:station:DISL:DISL:1,2010-04-01T20:00:00Z,30.2513,-88.0778,6.316,8.57,1111122 
DISL,ioos:station:DISL:DISL:1,2010-04-01T20:30:00Z,30.2513,-88.0778,6.191,9.81,1111122 
DISL,ioos:station:DISL:DISL:1,2010-04-01T21:00:00Z,30.2513,-88.0778,6.034,10.15,1111122 
DISL,ioos:station:DISL:DISL:1,2010-04-01T21:30:00Z,30.2513,-88.0778,5.985,10.49,1111122 
DISL,ioos:station:DISL:DISL:1,2010-04-01T22:00:00Z,30.2513,-88.0778,5.858,9.33,1111122 
DISL,ioos:station:DISL:DISL:1,2010-04-01T22:30:00Z,30.2513,-88.0778,5.773,9.3,1111122 
DISL,ioos:station:DISL:DISL:1,2010-04-01T23:00:00Z,30.2513,-88.0778,5.709,9.11,1111122 
DISL,ioos:station:DISL:DISL:1,2010-04-01T23:30:00Z,30.2513,-88.0778,5.6,9.27,1111122 
DISL,ioos:station:DISL:DISL:1,2010-04-02T00:00:00Z,30.2513,-88.0778,5.6,9.27,1111122 
DISL,ioos:station:DISL:DISL:1,2010-04-02T00:30:00Z,30.2513,-88.0778,5.471,9.48,1111122 
DISL,ioos:station:DISL:DISL:1,2010-04-02T01:00:00Z,30.2513,-88.0778,5.351,9.23,1111122 
DISL,ioos:station:DISL:DISL:1,2010-04-02T01:30:00Z,30.2513,-88.0778,5.327,9.22,1111122 
DISL,ioos:station:DISL:DISL:1,2010-04-02T02:00:00Z,30.2513,-88.0778,5.272,9.18,1111122 
DISL,ioos:station:DISL:DISL:1,2010-04-02T02:30:00Z,30.2513,-88.0778,5.241,9.59,1111122 
DISL,ioos:station:DISL:DISL:1,2010-04-02T03:00:00Z,30.2513,-88.0778,5.189,10.03,1111122 
DISL,ioos:station:DISL:DISL:1,2010-04-02T03:30:00Z,30.2513,-88.0778,5.168,10.77,1111122 
DISL,ioos:station:DISL:DISL:1,2010-04-02T04:00:00Z,30.2513,-88.0778,5.168,10.77,1111122 
DISL,ioos:station:DISL:DISL:1,2010-04-02T04:30:00Z,30.2513,-88.0778,5.134,11.11,1111122 
DISL,ioos:station:DISL:DISL:1,2010-04-02T05:00:00Z,30.2513,-88.0778,5.12,9.79,1111122 
DISL,ioos:station:DISL:DISL:1,2010-04-02T05:30:00Z,30.2513,-88.0778,5.169,10.28,1111122 
DISL,ioos:station:DISL:DISL:1,2010-04-02T06:00:00Z,30.2513,-88.0778,5.153,9.74,1111122 
DISL,ioos:station:DISL:DISL:1,2010-04-02T06:30:00Z,30.2513,-88.0778,5.222,9.43,1111122 
DISL,ioos:station:DISL:DISL:1,2010-04-02T07:00:00Z,30.2513,-88.0778,5.253,9.15,1111122 
DISL,ioos:station:DISL:DISL:1,2010-04-02T07:30:00Z,30.2513,-88.0778,5.316,9.71,1111122 
DISL,ioos:station:DISL:DISL:1,2010-04-02T08:00:00Z,30.2513,-88.0778,5.374,8.98,1111122 
DISL,ioos:station:DISL:DISL:1,2010-04-02T08:30:00Z,30.2513,-88.0778,5.455,8.42,1111122 
DISL,ioos:station:DISL:DISL:1,2010-04-02T09:00:00Z,30.2513,-88.0778,5.525,8.51,1111122 
DISL,ioos:station:DISL:DISL:1,2010-04-02T09:30:00Z,30.2513,-88.0778,5.552,8.45,1111122 
DISL,ioos:station:DISL:DISL:1,2010-04-02T10:00:00Z,30.2513,-88.0778,5.653,8.49,1111122 
DISL,ioos:station:DISL:DISL:1,2010-04-02T10:30:00Z,30.2513,-88.0778,5.762,9.34,1111122 
DISL,ioos:station:DISL:DISL:1,2010-04-02T11:00:00Z,30.2513,-88.0778,5.846,8.86,1111122 
DISL,ioos:station:DISL:DISL:1,2010-04-02T11:30:00Z,30.2513,-88.0778,5.931,8.39,1111122 
DISL,ioos:station:DISL:DISL:1,2010-04-02T12:00:00Z,30.2513,-88.0778,5.997,7.36,1111122 
DISL,ioos:station:DISL:DISL:1,2010-04-02T12:30:00Z,30.2513,-88.0778,6.108,7.4,1111122 
DISL,ioos:station:DISL:DISL:1,2010-04-02T13:00:00Z,30.2513,-88.0778,6.372,7.15,1111122 
DISL,ioos:station:DISL:DISL:1,2010-04-02T13:30:00Z,30.2513,-88.0778,6.354,7.34,1111122 
DISL,ioos:station:DISL:DISL:1,2010-04-02T14:00:00Z,30.2513,-88.0778,6.456,7.25,1111122 
DISL,ioos:station:DISL:DISL:1,2010-04-02T14:30:00Z,30.2513,-88.0778,6.551,7.51,1111122 
DISL,ioos:station:DISL:DISL:1,2010-04-02T15:00:00Z,30.2513,-88.0778,6.551,7.51,1111122 
DISL,ioos:station:DISL:DISL:1,2010-04-02T15:30:00Z,30.2513,-88.0778,6.757,8.17,1111122 
DISL,ioos:station:DISL:DISL:1,2010-04-02T16:00:00Z,30.2513,-88.0778,6.846,8.22,1111122 
DISL,ioos:station:DISL:DISL:1,2010-04-02T16:30:00Z,30.2513,-88.0778,6.868,8.24,1111122 
DISL,ioos:station:DISL:DISL:1,2010-04-02T17:00:00Z,30.2513,-88.0778,6.912,8.43,1111122 
DISL,ioos:station:DISL:DISL:1,2010-04-02T17:30:00Z,30.2513,-88.0778,6.912,8.43,1111122 
DISL,ioos:station:DISL:DISL:1,2010-04-02T18:00:00Z,30.2513,-88.0778,6.912,8.43,1111122 
DISL,ioos:station:DISL:DISL:1,2010-04-02T18:30:00Z,30.2513,-88.0778,6.891,8.0,1111122 
DISL,ioos:station:DISL:DISL:1,2010-04-02T19:00:00Z,30.2513,-88.0778,6.891,8.0,1111122 
DISL,ioos:station:DISL:DISL:1,2010-04-02T19:30:00Z,30.2513,-88.0778,6.891,8.0,1111122 
DISL,ioos:station:DISL:DISL:1,2010-04-02T20:00:00Z,30.2513,-88.0778,6.891,8.0,1111122 
DISL,ioos:station:DISL:DISL:1,2010-04-02T20:30:00Z,30.2513,-88.0778,6.717,9.6,1111122 
DISL,ioos:station:DISL:DISL:1,2010-04-02T21:00:00Z,30.2513,-88.0778,6.66,9.24,1111122 
DISL,ioos:station:DISL:DISL:1,2010-04-02T21:30:00Z,30.2513,-88.0778,6.547,9.19,1111122 
DISL,ioos:station:DISL:DISL:1,2010-04-02T22:00:00Z,30.2513,-88.0778,6.393,9.24,1111122 
DISL,ioos:station:DISL:DISL:1,2010-04-02T22:30:00Z,30.2513,-88.0778,6.359,9.22,1111122 
DISL,ioos:station:DISL:DISL:1,2010-04-02T23:00:00Z,30.2513,-88.0778,6.3,9.28,1111122 
DISL,ioos:station:DISL:DISL:1,2010-04-02T23:30:00Z,30.2513,-88.0778,6.3,9.28,1111122 
DISL,ioos:station:DISL:DISL:1,2010-04-03T00:00:00Z,30.2513,-88.0778,6.093,9.22,1111122 
DISL,ioos:station:DISL:DISL:1,2010-04-03T00:30:00Z,30.2513,-88.0778,6.033,9.25,1111122 
DISL,ioos:station:DISL:DISL:1,2010-04-03T01:00:00Z,30.2513,-88.0778,5.948,9.18,1111122 
DISL,ioos:station:DISL:DISL:1,2010-04-03T01:30:00Z,30.2513,-88.0778,5.911,9.17,1111122 
DISL,ioos:station:DISL:DISL:1,2010-04-03T02:00:00Z,30.2513,-88.0778,5.855,9.19,1111122 
DISL,ioos:station:DISL:DISL:1,2010-04-03T02:30:00Z,30.2513,-88.0778,5.796,9.23,1111122 
DISL,ioos:station:DISL:DISL:1,2010-04-03T03:00:00Z,30.2513,-88.0778,5.711,9.2,1111122 
DISL,ioos:station:DISL:DISL:1,2010-04-03T03:30:00Z,30.2513,-88.0778,5.684,9.13,1111122 
DISL,ioos:station:DISL:DISL:1,2010-04-03T04:00:00Z,30.2513,-88.0778,5.655,8.91,1111122 
DISL,ioos:station:DISL:DISL:1,2010-04-03T04:30:00Z,30.2513,-88.0778,5.608,8.84,1111122 
DISL,ioos:station:DISL:DISL:1,2010-04-03T05:00:00Z,30.2513,-88.0778,5.588,8.98,1111122 
DISL,ioos:station:DISL:DISL:1,2010-04-03T05:30:00Z,30.2513,-88.0778,5.539,8.95,1111122 
DISL,ioos:station:DISL:DISL:1,2010-04-03T06:00:00Z,30.2513,-88.0778,5.523,9.02,1111122 
DISL,ioos:station:DISL:DISL:1,2010-04-03T06:30:00Z,30.2513,-88.0778,5.541,8.73,1111122 
DISL,ioos:station:DISL:DISL:1,2010-04-03T07:00:00Z,30.2513,-88.0778,5.627,8.69,1111122 
DISL,ioos:station:DISL:DISL:1,2010-04-03T07:30:00Z,30.2513,-88.0778,5.608,8.56,1111122 
DISL,ioos:station:DISL:DISL:1,2010-04-03T08:00:00Z,30.2513,-88.0778,5.646,8.92,1111122 
DISL,ioos:station:DISL:DISL:1,2010-04-03T08:30:00Z,30.2513,-88.0778,5.733,8.61,1111122 
DISL,ioos:station:DISL:DISL:1,2010-04-03T09:00:00Z,30.2513,-88.0778,5.848,8.49,1111122 
DISL,ioos:station:DISL:DISL:1,2010-04-03T09:30:00Z,30.2513,-88.0778,5.877,8.4,1111122 
DISL,ioos:station:DISL:DISL:1,2010-04-03T10:00:00Z,30.2513,-88.0778,5.907,8.56,1111122 
DISL,ioos:station:DISL:DISL:1,2010-04-03T10:30:00Z,30.2513,-88.0778,6.007,8.36,1111122 
DISL,ioos:station:DISL:DISL:1,2010-04-03T11:00:00Z,30.2513,-88.0778,6.096,8.31,1111122 
DISL,ioos:station:DISL:DISL:1,2010-04-03T11:30:00Z,30.2513,-88.0778,6.205,7.82,1111122 
DISL,ioos:station:DISL:DISL:1,2010-04-03T12:00:00Z,30.2513,-88.0778,6.142,7.73,1111122 
DISL,ioos:station:DISL:DISL:1,2010-04-03T12:30:00Z,30.2513,-88.0778,6.309,7.66,1111122 
DISL,ioos:station:DISL:DISL:1,2010-04-03T13:00:00Z,30.2513,-88.0778,6.313,7.54,1111122 
DISL,ioos:station:DISL:DISL:1,2010-04-03T13:30:00Z,30.2513,-88.0778,6.42,7.91,1111122 
DISL,ioos:station:DISL:DISL:1,2010-04-03T14:00:00Z,30.2513,-88.0778,6.434,7.92,1111122 
DISL,ioos:station:DISL:DISL:1,2010-04-03T14:30:00Z,30.2513,-88.0778,6.571,7.54,1111122 
DISL,ioos:station:DISL:DISL:1,2010-04-03T15:00:00Z,30.2513,-88.0778,6.642,7.14,1111122 
DISL,ioos:station:DISL:DISL:1,2010-04-03T15:30:00Z,30.2513,-88.0778,6.743,7.55,1111122 
DISL,ioos:station:DISL:DISL:1,2010-04-03T16:00:00Z,30.2513,-88.0778,6.855,7.75,1111122 
DISL,ioos:station:DISL:DISL:1,2010-04-03T16:30:00Z,30.2513,-88.0778,6.855,7.75,1111122 
DISL,ioos:station:DISL:DISL:1,2010-04-03T17:00:00Z,30.2513,-88.0778,7.02,8.05,1111122 
DISL,ioos:station:DISL:DISL:1,2010-04-03T17:30:00Z,30.2513,-88.0778,6.998,7.95,1111122 
DISL,ioos:station:DISL:DISL:1,2010-04-03T18:00:00Z,30.2513,-88.0778,7.01,8.04,1111122 
DISL,ioos:station:DISL:DISL:1,2010-04-03T18:30:00Z,30.2513,-88.0778,6.992,7.91,1111122 
DISL,ioos:station:DISL:DISL:1,2010-04-03T19:00:00Z,30.2513,-88.0778,6.958,9.17,1111122 
DISL,ioos:station:DISL:DISL:1,2010-04-03T19:30:00Z,30.2513,-88.0778,6.901,9.59,1111122 
DISL,ioos:station:DISL:DISL:1,2010-04-03T20:00:00Z,30.2513,-88.0778,6.886,9.98,1111122 
DISL,ioos:station:DISL:DISL:1,2010-04-03T20:30:00Z,30.2513,-88.0778,6.825,9.59,1111122 
DISL,ioos:station:DISL:DISL:1,2010-04-03T21:00:00Z,30.2513,-88.0778,6.839,10.05,1111122 
DISL,ioos:station:DISL:DISL:1,2010-04-03T21:30:00Z,30.2513,-88.0778,6.767,9.81,1111122 
DISL,ioos:station:DISL:DISL:1,2010-04-03T22:00:00Z,30.2513,-88.0778,6.662,9.79,1111122 
DISL,ioos:station:DISL:DISL:1,2010-04-03T22:30:00Z,30.2513,-88.0778,6.553,10.19,1111122 
DISL,ioos:station:DISL:DISL:1,2010-04-03T23:00:00Z,30.2513,-88.0778,6.553,10.19,1111122 
DISL,ioos:station:DISL:DISL:1,2010-04-03T23:30:00Z,30.2513,-88.0778,6.398,10.28,1111122 
DISL,ioos:station:DISL:DISL:1,2010-04-04T00:00:00Z,30.2513,-88.0778,6.256,9.73,1111122 
DISL,ioos:station:DISL:DISL:1,2010-04-04T00:30:00Z,30.2513,-88.0778,6.205,9.58,1111122 
DISL,ioos:station:DISL:DISL:1,2010-04-04T01:00:00Z,30.2513,-88.0778,6.109,9.35,1111122 
DISL,ioos:station:DISL:DISL:1,2010-04-04T01:30:00Z,30.2513,-88.0778,5.999,9.23,1111122 
DISL,ioos:station:DISL:DISL:1,2010-04-04T02:00:00Z,30.2513,-88.0778,5.914,9.09,1111122 
DISL,ioos:station:DISL:DISL:1,2010-04-04T02:30:00Z,30.2513,-88.0778,5.854,8.9,1111122 
DISL,ioos:station:DISL:DISL:1,2010-04-04T03:00:00Z,30.2513,-88.0778,5.808,8.65,1111122 
DISL,ioos:station:DISL:DISL:1,2010-04-04T03:30:00Z,30.2513,-88.0778,5.78,7.86,1111122 
DISL,ioos:station:DISL:DISL:1,2010-04-04T04:00:00Z,30.2513,-88.0778,5.698,8.59,1111122 
DISL,ioos:station:DISL:DISL:1,2010-04-04T04:30:00Z,30.2513,-88.0778,5.646,8.94,1111122 
DISL,ioos:station:DISL:DISL:1,2010-04-04T05:00:00Z,30.2513,-88.0778,5.617,9.13,1111122 
DISL,ioos:station:DISL:DISL:1,2010-04-04T05:30:00Z,30.2513,-88.0778,5.608,9.45,1111122 
DISL,ioos:station:DISL:DISL:1,2010-04-04T06:00:00Z,30.2513,-88.0778,5.56,9.08,1111122 
DISL,ioos:station:DISL:DISL:1,2010-04-04T06:30:00Z,30.2513,-88.0778,5.525,9.34,1111122 
DISL,ioos:station:DISL:DISL:1,2010-04-04T07:00:00Z,30.2513,-88.0778,5.544,9.21,1111122 
DISL,ioos:station:DISL:DISL:1,2010-04-04T07:30:00Z,30.2513,-88.0778,5.529,9.4,1111122 
DISL,ioos:station:DISL:DISL:1,2010-04-04T08:00:00Z,30.2513,-88.0778,5.547,9.34,1111122 
DISL,ioos:station:DISL:DISL:1,2010-04-04T08:30:00Z,30.2513,-88.0778,5.559,8.35,1111122 
DISL,ioos:station:DISL:DISL:1,2010-04-04T09:00:00Z,30.2513,-88.0778,5.594,8.51,1111122 
DISL,ioos:station:DISL:DISL:1,2010-04-04T09:30:00Z,30.2513,-88.0778,5.628,7.77,1111122 
DISL,ioos:station:DISL:DISL:1,2010-04-04T10:00:00Z,30.2513,-88.0778,5.683,7.47,1111122 
DISL,ioos:station:DISL:DISL:1,2010-04-04T10:30:00Z,30.2513,-88.0778,5.735,7.48,1111122 
DISL,ioos:station:DISL:DISL:1,2010-04-04T11:00:00Z,30.2513,-88.0778,5.781,7.21,1111122 
DISL,ioos:station:DISL:DISL:1,2010-04-04T11:30:00Z,30.2513,-88.0778,5.863,7.18,1111122 
DISL,ioos:station:DISL:DISL:1,2010-04-04T12:00:00Z,30.2513,-88.0778,5.955,7.13,1111122 
DISL,ioos:station:DISL:DISL:1,2010-04-04T12:30:00Z,30.2513,-88.0778,5.993,6.8,1111122 
DISL,ioos:station:DISL:DISL:1,2010-04-04T13:00:00Z,30.2513,-88.0778,6.123,7.34,1111122 
DISL,ioos:station:DISL:DISL:1,2010-04-04T13:30:00Z,30.2513,-88.0778,6.213,7.13,1111122 
DISL,ioos:station:DISL:DISL:1,2010-04-04T14:00:00Z,30.2513,-88.0778,6.284,7.82,1111122 
DISL,ioos:station:DISL:DISL:1,2010-04-04T14:30:00Z,30.2513,-88.0778,6.352,7.38,1111122 
DISL,ioos:station:DISL:DISL:1,2010-04-04T15:00:00Z,30.2513,-88.0778,6.466,7.47,1111122 
DISL,ioos:station:DISL:DISL:1,2010-04-04T15:30:00Z,30.2513,-88.0778,6.531,7.49,1111122 
DISL,ioos:station:DISL:DISL:1,2010-04-04T16:00:00Z,30.2513,-88.0778,6.634,7.28,1111122 
DISL,ioos:station:DISL:DISL:1,2010-04-04T16:30:00Z,30.2513,-88.0778,6.706,7.11,1111122 
DISL,ioos:station:DISL:DISL:1,2010-04-04T17:00:00Z,30.2513,-88.0778,6.781,6.99,1111122 
DISL,ioos:station:DISL:DISL:1,2010-04-04T17:30:00Z,30.2513,-88.0778,6.837,6.92,1111122 
DISL,ioos:station:DISL:DISL:1,2010-04-04T18:00:00Z,30.2513,-88.0778,6.872,7.3,1111122 
DISL,ioos:station:DISL:DISL:1,2010-04-04T18:30:00Z,30.2513,-88.0778,6.892,7.25,1111122 
DISL,ioos:station:DISL:DISL:1,2010-04-04T19:00:00Z,30.2513,-88.0778,6.907,7.32,1111122 
DISL,ioos:station:DISL:DISL:1,2010-04-04T19:30:00Z,30.2513,-88.0778,6.938,7.78,1111122 
DISL,ioos:station:DISL:DISL:1,2010-04-04T20:00:00Z,30.2513,-88.0778,6.938,7.8,1111122 
DISL,ioos:station:DISL:DISL:1,2010-04-04T20:30:00Z,30.2513,-88.0778,6.844,7.91,1111122 
DISL,ioos:station:DISL:DISL:1,2010-04-04T21:00:00Z,30.2513,-88.0778,6.725,7.46,1111122 
DISL,ioos:station:DISL:DISL:1,2010-04-04T21:30:00Z,30.2513,-88.0778,6.719,8.6,1111122 
DISL,ioos:station:DISL:DISL:1,2010-04-04T22:00:00Z,30.2513,-88.0778,6.567,9.68,1111122 
DISL,ioos:station:DISL:DISL:1,2010-04-04T22:30:00Z,30.2513,-88.0778,6.585,10.64,1111122 
DISL,ioos:station:DISL:DISL:1,2010-04-04T23:00:00Z,30.2513,-88.0778,6.539,10.13,1111122 
DISL,ioos:station:DISL:DISL:1,2010-04-04T23:30:00Z,30.2513,-88.0778,6.408,9.47,1111122 
DISL,ioos:station:DISL:DISL:1,2010-04-05T00:00:00Z,30.2513,-88.0778,6.316,9.32,1111122 
DISL,ioos:station:DISL:DISL:1,2010-04-05T00:30:00Z,30.2513,-88.0778,6.211,9.34,1111122 
DISL,ioos:station:DISL:DISL:1,2010-04-05T01:00:00Z,30.2513,-88.0778,6.132,9.34,1111122 
DISL,ioos:station:DISL:DISL:1,2010-04-05T01:30:00Z,30.2513,-88.0778,6.024,9.29,1111122 
DISL,ioos:station:DISL:DISL:1,2010-04-05T02:00:00Z,30.2513,-88.0778,6.023,9.14,1111122 
DISL,ioos:station:DISL:DISL:1,2010-04-05T02:30:00Z,30.2513,-88.0778,5.909,9.14,1111122 
DISL,ioos:station:DISL:DISL:1,2010-04-05T03:00:00Z,30.2513,-88.0778,5.872,9.16,1111122 
DISL,ioos:station:DISL:DISL:1,2010-04-05T03:30:00Z,30.2513,-88.0778,5.718,9.11,1111122 
DISL,ioos:station:DISL:DISL:1,2010-04-05T04:00:00Z,30.2513,-88.0778,5.657,9.2,1111122 
DISL,ioos:station:DISL:DISL:1,2010-04-05T04:30:00Z,30.2513,-88.0778,5.582,9.04,1111122 
DISL,ioos:station:DISL:DISL:1,2010-04-05T05:00:00Z,30.2513,-88.0778,5.533,9.02,1111122 
DISL,ioos:station:DISL:DISL:1,2010-04-05T05:30:00Z,30.2513,-88.0778,5.467,8.94,1111122 
DISL,ioos:station:DISL:DISL:1,2010-04-05T06:00:00Z,30.2513,-88.0778,5.394,8.89,1111122 
DISL,ioos:station:DISL:DISL:1,2010-04-05T06:30:00Z,30.2513,-88.0778,5.374,8.85,1111122 
DISL,ioos:station:DISL:DISL:1,2010-04-05T07:00:00Z,30.2513,-88.0778,5.305,8.9,1111122 
DISL,ioos:station:DISL:DISL:1,2010-04-05T07:30:00Z,30.2513,-88.0778,5.308,8.85,1111122 
DISL,ioos:station:DISL:DISL:1,2010-04-05T08:00:00Z,30.2513,-88.0778,5.313,8.84,1111122 
DISL,ioos:station:DISL:DISL:1,2010-04-05T08:30:00Z,30.2513,-88.0778,5.26,8.75,1111122 
DISL,ioos:station:DISL:DISL:1,2010-04-05T09:00:00Z,30.2513,-88.0778,5.267,8.78,1111122 
DISL,ioos:station:DISL:DISL:1,2010-04-05T09:30:00Z,30.2513,-88.0778,5.309,8.45,1111122 
DISL,ioos:station:DISL:DISL:1,2010-04-05T10:00:00Z,30.2513,-88.0778,5.323,9.0,1111122 
DISL,ioos:station:DISL:DISL:1,2010-04-05T10:30:00Z,30.2513,-88.0778,5.404,8.64,1111122 
DISL,ioos:station:DISL:DISL:1,2010-04-05T11:00:00Z,30.2513,-88.0778,5.406,8.78,1111122 
DISL,ioos:station:DISL:DISL:1,2010-04-05T11:30:00Z,30.2513,-88.0778,5.507,8.5,1111122 
DISL,ioos:station:DISL:DISL:1,2010-04-05T12:00:00Z,30.2513,-88.0778,5.572,7.99,1111122 
DISL,ioos:station:DISL:DISL:1,2010-04-05T12:30:00Z,30.2513,-88.0778,5.641,8.27,1111122 
DISL,ioos:station:DISL:DISL:1,2010-04-05T13:00:00Z,30.2513,-88.0778,5.687,7.66,1111122 
DISL,ioos:station:DISL:DISL:1,2010-04-05T13:30:00Z,30.2513,-88.0778,5.776,7.92,1111122 
DISL,ioos:station:DISL:DISL:1,2010-04-05T14:00:00Z,30.2513,-88.0778,5.906,8.14,1111122 
DISL,ioos:station:DISL:DISL:1,2010-04-05T14:30:00Z,30.2513,-88.0778,5.918,8.3,1111122 
DISL,ioos:station:DISL:DISL:1,2010-04-05T15:00:00Z,30.2513,-88.0778,5.992,8.03,1111122 
DISL,ioos:station:DISL:DISL:1,2010-04-05T15:30:00Z,30.2513,-88.0778,6.122,7.46,1111122 
DISL,ioos:station:DISL:DISL:1,2010-04-05T16:00:00Z,30.2513,-88.0778,6.153,7.35,1111122 
DISL,ioos:station:DISL:DISL:1,2010-04-05T16:30:00Z,30.2513,-88.0778,6.274,7.46,1111122 
DISL,ioos:station:DISL:DISL:1,2010-04-05T17:00:00Z,30.2513,-88.0778,6.4,7.62,1111122 
DISL,ioos:station:DISL:DISL:1,2010-04-05T17:30:00Z,30.2513,-88.0778,6.403,7.47,1111122 
DISL,ioos:station:DISL:DISL:1,2010-04-05T18:00:00Z,30.2513,-88.0778,6.448,7.62,1111122 
DISL,ioos:station:DISL:DISL:1,2010-04-05T18:30:00Z,30.2513,-88.0778,6.523,8.0,1111122 
DISL,ioos:station:DISL:DISL:1,2010-04-05T19:00:00Z,30.2513,-88.0778,6.571,7.83,1111122 
DISL,ioos:station:DISL:DISL:1,2010-04-05T19:30:00Z,30.2513,-88.0778,6.574,7.64,1111122 
DISL,ioos:station:DISL:DISL:1,2010-04-05T20:00:00Z,30.2513,-88.0778,6.618,7.73,1111122 
DISL,ioos:station:DISL:DISL:1,2010-04-05T20:30:00Z,30.2513,-88.0778,6.663,7.73,1111122 
DISL,ioos:station:DISL:DISL:1,2010-04-05T21:00:00Z,30.2513,-88.0778,6.716,7.85,1111122 
DISL,ioos:station:DISL:DISL:1,2010-04-05T21:30:00Z,30.2513,-88.0778,6.709,8.09,1111122 
DISL,ioos:station:DISL:DISL:1,2010-04-05T22:00:00Z,30.2513,-88.0778,6.653,8.5,1111122 
DISL,ioos:station:DISL:DISL:1,2010-04-05T22:30:00Z,30.2513,-88.0778,6.607,8.64,1111122 
DISL,ioos:station:DISL:DISL:1,2010-04-05T23:00:00Z,30.2513,-88.0778,6.553,7.85,1111122 
DISL,ioos:station:DISL:DISL:1,2010-04-05T23:30:00Z,30.2513,-88.0778,6.519,7.85,1111122 
DISL,ioos:station:DISL:DISL:1,2010-04-06T00:00:00Z,30.2513,-88.0778,6.503,9.02,1111122 
DISL,ioos:station:DISL:DISL:1,2010-04-06T00:30:00Z,30.2513,-88.0778,6.366,9.36,1111122 
DISL,ioos:station:DISL:DISL:1,2010-04-06T01:00:00Z,30.2513,-88.0778,6.316,9.16,1111122 
DISL,ioos:station:DISL:DISL:1,2010-04-06T01:30:00Z,30.2513,-88.0778,6.237,8.78,1111122 
DISL,ioos:station:DISL:DISL:1,2010-04-06T02:00:00Z,30.2513,-88.0778,6.178,8.86,1111122 
DISL,ioos:station:DISL:DISL:1,2010-04-06T02:30:00Z,30.2513,-88.0778,6.104,8.97,1111122 
DISL,ioos:station:DISL:DISL:1,2010-04-06T03:00:00Z,30.2513,-88.0778,5.932,9.0,1111122 
DISL,ioos:station:DISL:DISL:1,2010-04-06T03:30:00Z,30.2513,-88.0778,5.965,8.84,1111122 
DISL,ioos:station:DISL:DISL:1,2010-04-06T04:00:00Z,30.2513,-88.0778,5.828,8.79,1111122 
DISL,ioos:station:DISL:DISL:1,2010-04-06T04:30:00Z,30.2513,-88.0778,5.776,8.88,1111122 
DISL,ioos:station:DISL:DISL:1,2010-04-06T05:00:00Z,30.2513,-88.0778,5.698,8.79,1111122 
DISL,ioos:station:DISL:DISL:1,2010-04-06T05:30:00Z,30.2513,-88.0778,5.632,8.77,1111122 
DISL,ioos:station:DISL:DISL:1,2010-04-06T06:00:00Z,30.2513,-88.0778,5.594,8.6,1111122 
DISL,ioos:station:DISL:DISL:1,2010-04-06T06:30:00Z,30.2513,-88.0778,5.513,8.61,1111122 
DISL,ioos:station:DISL:DISL:1,2010-04-06T07:00:00Z,30.2513,-88.0778,5.488,8.71,1111122 
DISL,ioos:station:DISL:DISL:1,2010-04-06T07:30:00Z,30.2513,-88.0778,5.47,8.64,1111122 
DISL,ioos:station:DISL:DISL:1,2010-04-06T08:00:00Z,30.2513,-88.0778,5.45,8.48,1111122 
DISL,ioos:station:DISL:DISL:1,2010-04-06T08:30:00Z,30.2513,-88.0778,5.432,8.64,1111122 
DISL,ioos:station:DISL:DISL:1,2010-04-06T09:00:00Z,30.2513,-88.0778,5.399,8.51,1111122 
DISL,ioos:station:DISL:DISL:1,2010-04-06T09:30:00Z,30.2513,-88.0778,5.404,7.65,1111122 
DISL,ioos:station:DISL:DISL:1,2010-04-06T10:00:00Z,30.2513,-88.0778,5.43,7.11,1111122 
DISL,ioos:station:DISL:DISL:1,2010-04-06T10:30:00Z,30.2513,-88.0778,5.449,7.73,1111122 
DISL,ioos:station:DISL:DISL:1,2010-04-06T11:00:00Z,30.2513,-88.0778,5.473,7.52,1111122 
DISL,ioos:station:DISL:DISL:1,2010-04-06T11:30:00Z,30.2513,-88.0778,5.547,7.56,1111122 
DISL,ioos:station:DISL:DISL:1,2010-04-06T12:00:00Z,30.2513,-88.0778,5.602,7.23,1111122 
DISL,ioos:station:DISL:DISL:1,2010-04-06T12:30:00Z,30.2513,-88.0778,5.65,7.44,1111122 
DISL,ioos:station:DISL:DISL:1,2010-04-06T13:00:00Z,30.2513,-88.0778,5.754,7.88,1111122 
DISL,ioos:station:DISL:DISL:1,2010-04-06T13:30:00Z,30.2513,-88.0778,5.793,7.42,1111122 
DISL,ioos:station:DISL:DISL:1,2010-04-06T14:00:00Z,30.2513,-88.0778,5.874,7.94,1111122 
DISL,ioos:station:DISL:DISL:1,2010-04-06T14:30:00Z,30.2513,-88.0778,5.928,8.46,1111122 
DISL,ioos:station:DISL:DISL:1,2010-04-06T15:00:00Z,30.2513,-88.0778,5.998,7.86,1111122 
DISL,ioos:station:DISL:DISL:1,2010-04-06T15:30:00Z,30.2513,-88.0778,6.093,7.7,1111122 